When you browse on this site, cookies collect data to enhance your experience and personalize the content and advertising you see.
Visit our Privacy Policy to learn more. By continuing to use the site, you agree to this use of cookies and data.
  • In Germany
  • List of Countries
  • For 7 days
  • Water Temperature
  • Weather Map
  • Weather Widgets
  • user-avatar
    Login

    Hourly Weather Pinsk

    Today, 25 May, Monday

    Time Temperature Precipitation Wind Pressure Humidity
    00:00 +9°C° 0 mm 1 mps 752 mmHg 95%
    01:00 +8°C° 0 mm 1 mps 752 mmHg 95%
    02:00 +8°C° 0 mm 1 mps 752 mmHg 97%
    03:00 +8°C° 0 mm 1 mps 752 mmHg 97%
    04:00 +7°C° 0 mm 1 mps 753 mmHg 97%
    05:00 +7°C° 0 mm 1 mps 753 mmHg 97%
    06:00 +9°C° 0 mm 1 mps 753 mmHg 93%
    07:00 +10°C° 0 mm 1 mps 753 mmHg 89%
    08:00 +12°C° 0 mm 1 mps 753 mmHg 85%
    09:00 +13°C° 0.4 mm 1 mps 753 mmHg 79%
    10:00 +14°C° 0.4 mm 2 mps 753 mmHg 73%
    11:00 +16°C° 0.4 mm 2 mps 753 mmHg 67%
    12:00 +16°C° 0.4 mm 2 mps 753 mmHg 64%
    13:00 +17°C° 0.4 mm 2 mps 753 mmHg 60%
    14:00 +18°C° 0.4 mm 2 mps 753 mmHg 57%
    15:00 +17°C° 0.4 mm 2 mps 752 mmHg 59%
    16:00 +17°C° 0.4 mm 2 mps 752 mmHg 61%
    17:00 +17°C° 0.4 mm 2 mps 752 mmHg 63%
    18:00 +16°C° 0.2 mm 2 mps 753 mmHg 69%
    19:00 +14°C° 0.2 mm 1 mps 753 mmHg 76%
    20:00 +13°C° 0.2 mm 1 mps 753 mmHg 82%
    21:00 +12°C° 0 mm 1 mps 754 mmHg 84%
    22:00 +11°C° 0 mm 1 mps 754 mmHg 87%
    23:00 +9°C° 0 mm 2 mps 754 mmHg 89%

    Tomorrow, 26 May, Tuesday

    Time Temperature Precipitation Wind Pressure Humidity
    00:00 +9°C° 0 mm 1 mps 754 mmHg 90%
    01:00 +9°C° 0 mm 1 mps 754 mmHg 90%
    02:00 +9°C° 0 mm 1 mps 754 mmHg 90%
    03:00 +8°C° 0 mm 1 mps 755 mmHg 91%
    04:00 +8°C° 0 mm 1 mps 755 mmHg 92%
    05:00 +7°C° 0 mm 2 mps 755 mmHg 92%
    06:00 +9°C° 0 mm 2 mps 755 mmHg 88%
    07:00 +12°C° 0 mm 2 mps 756 mmHg 85%
    08:00 +12°C° 0 mm 3 mps 756 mmHg 81%
    09:00 +13°C° 0.2 mm 3 mps 756 mmHg 81%
    10:00 +13°C° 0.2 mm 4 mps 756 mmHg 80%
    11:00 +13°C° 0.2 mm 5 mps 756 mmHg 80%
    12:00 +14°C° 0.1 mm 5 mps 756 mmHg 76%
    13:00 +15°C° 0.1 mm 5 mps 756 mmHg 73%
    14:00 +16°C° 0.1 mm 5 mps 756 mmHg 69%
    15:00 +17°C° 0 mm 4 mps 756 mmHg 69%
    16:00 +17°C° 0 mm 4 mps 756 mmHg 69%
    17:00 +17°C° 0 mm 3 mps 756 mmHg 69%
    18:00 +16°C° 0.4 mm 3 mps 756 mmHg 76%
    19:00 +14°C° 0.4 mm 2 mps 756 mmHg 83%
    20:00 +13°C° 0.4 mm 2 mps 756 mmHg 89%
    21:00 +12°C° 0 mm 2 mps 756 mmHg 90%
    22:00 +12°C° 0 mm 1 mps 756 mmHg 91%
    23:00 +11°C° 0 mm 1 mps 756 mmHg 92%

    Day after tomorrow, 27 May, Wednesday

    Time Temperature Precipitation Wind Pressure Humidity
    00:00 +11°C° 0 mm 1 mps 756 mmHg 92%
    01:00 +11°C° 0 mm 1 mps 756 mmHg 93%
    02:00 +10°C° 0 mm 2 mps 755 mmHg 94%
    03:00 +10°C° 0 mm 1 mps 755 mmHg 94%
    04:00 +10°C° 0 mm 1 mps 755 mmHg 94%
    05:00 +10°C° 0 mm 1 mps 755 mmHg 94%
    06:00 +12°C° 0 mm 1 mps 755 mmHg 90%
    07:00 +13°C° 0 mm 1 mps 755 mmHg 86%
    08:00 +14°C° 0 mm 2 mps 755 mmHg 83%
    09:00 +16°C° 0.6 mm 2 mps 755 mmHg 76%
    10:00 +17°C° 0.6 mm 2 mps 755 mmHg 70%
    11:00 +18°C° 0.6 mm 2 mps 755 mmHg 63%
    12:00 +18°C° 1.1 mm 2 mps 754 mmHg 64%
    13:00 +19°C° 1.1 mm 3 mps 754 mmHg 64%
    14:00 +19°C° 1.1 mm 3 mps 754 mmHg 64%
    15:00 +19°C° 0.7 mm 3 mps 754 mmHg 67%
    16:00 +18°C° 0.7 mm 3 mps 753 mmHg 69%
    17:00 +18°C° 0.7 mm 3 mps 753 mmHg 72%
    18:00 +17°C° 0.1 mm 3 mps 753 mmHg 75%
    19:00 +15°C° 0.1 mm 2 mps 753 mmHg 79%
    20:00 +14°C° 0.1 mm 2 mps 753 mmHg 83%
    21:00 +13°C° 0 mm 2 mps 753 mmHg 85%
    22:00 +12°C° 0 mm 2 mps 753 mmHg 88%
    23:00 +10°C° 0 mm 3 mps 753 mmHg 90%

    28 May, Thursday

    Time Temperature Precipitation Wind Pressure Humidity
    00:00 +9°C° 0 mm 2 mps 752 mmHg 91%
    01:00 +9°C° 0 mm 2 mps 752 mmHg 92%
    02:00 +8°C° 0 mm 2 mps 752 mmHg 94%
    03:00 +8°C° 0 mm 2 mps 752 mmHg 94%
    04:00 +8°C° 0 mm 2 mps 752 mmHg 94%
    05:00 +8°C° 0 mm 2 mps 751 mmHg 95%
    06:00 +10°C° 0 mm 2 mps 751 mmHg 91%
    07:00 +13°C° 0 mm 2 mps 751 mmHg 86%
    08:00 +13°C° 0 mm 3 mps 752 mmHg 82%
    09:00 +14°C° 0.3 mm 3 mps 751 mmHg 76%
    10:00 +17°C° 0.3 mm 2 mps 751 mmHg 71%
    11:00 +18°C° 0.3 mm 2 mps 751 mmHg 66%
    12:00 +18°C° 0.4 mm 3 mps 750 mmHg 66%
    13:00 +18°C° 0.4 mm 4 mps 750 mmHg 66%
    14:00 +17°C° 0.4 mm 5 mps 749 mmHg 66%
    15:00 +18°C° 0.2 mm 4 mps 749 mmHg 67%
    16:00 +18°C° 0.2 mm 4 mps 749 mmHg 68%
    17:00 +17°C° 0.2 mm 4 mps 749 mmHg 69%
    18:00 +16°C° 0.1 mm 3 mps 748 mmHg 74%
    19:00 +14°C° 0.1 mm 3 mps 748 mmHg 79%
    20:00 +14°C° 0.1 mm 2 mps 748 mmHg 84%
    21:00 +13°C° 0.1 mm 2 mps 748 mmHg 86%
    22:00 +12°C° 0.1 mm 2 mps 748 mmHg 88%
    23:00 +12°C° 0.1 mm 2 mps 748 mmHg 90%

    29 May, Friday

    Time Temperature Precipitation Wind Pressure Humidity
    00:00 +10°C° 0 mm 2 mps 747 mmHg 91%
    01:00 +10°C° 0 mm 2 mps 747 mmHg 92%
    02:00 +9°C° 0 mm 2 mps 747 mmHg 93%
    03:00 +9°C° 0 mm 3 mps 747 mmHg 94%
    04:00 +9°C° 0 mm 3 mps 747 mmHg 95%
    05:00 +9°C° 0 mm 3 mps 747 mmHg 95%
    06:00 +10°C° 0 mm 3 mps 747 mmHg 94%
    07:00 +11°C° 0 mm 3 mps 747 mmHg 92%
    08:00 +12°C° 0 mm 4 mps 746 mmHg 90%
    09:00 +12°C° 0.3 mm 4 mps 746 mmHg 89%
    10:00 +13°C° 0.3 mm 4 mps 746 mmHg 87%
    11:00 +13°C° 0.3 mm 4 mps 746 mmHg 86%
    12:00 +14°C° 0.3 mm 4 mps 746 mmHg 83%
    13:00 +15°C° 0.3 mm 4 mps 746 mmHg 80%
    14:00 +15°C° 0.3 mm 4 mps 746 mmHg 77%
    15:00 +15°C° 0.5 mm 4 mps 746 mmHg 78%
    16:00 +15°C° 0.5 mm 4 mps 746 mmHg 79%
    17:00 +15°C° 0.5 mm 4 mps 746 mmHg 79%
    18:00 +14°C° 0.2 mm 3 mps 746 mmHg 84%
    19:00 +13°C° 0.2 mm 3 mps 746 mmHg 88%
    20:00 +11°C° 0.2 mm 3 mps 746 mmHg 93%
    21:00 +10°C° 0 mm 3 mps 747 mmHg 94%
    22:00 +10°C° 0 mm 3 mps 747 mmHg 95%
    23:00 +9°C° 0 mm 2 mps 747 mmHg 96%

    30 May, Saturday

    Time Temperature Precipitation Wind Pressure Humidity
    00:00 +8°C° 0 mm 2 mps 747 mmHg 97%
    01:00 +8°C° 0 mm 2 mps 747 mmHg 97%
    02:00 +7°C° 0 mm 2 mps 747 mmHg 97%
    03:00 +7°C° 0 mm 2 mps 748 mmHg 97%
    04:00 +7°C° 0 mm 2 mps 748 mmHg 97%
    05:00 +7°C° 0 mm 2 mps 748 mmHg 97%
    06:00 +9°C° 0 mm 2 mps 748 mmHg 93%
    07:00 +10°C° 0 mm 3 mps 748 mmHg 88%
    08:00 +12°C° 0 mm 3 mps 748 mmHg 83%
    09:00 +13°C° 0.1 mm 3 mps 749 mmHg 77%
    10:00 +16°C° 0.1 mm 3 mps 749 mmHg 71%
    11:00 +17°C° 0.1 mm 3 mps 749 mmHg 65%
    12:00 +17°C° 0.2 mm 3 mps 749 mmHg 64%
    13:00 +18°C° 0.2 mm 3 mps 749 mmHg 62%
    14:00 +18°C° 0.2 mm 4 mps 749 mmHg 61%
    15:00 +18°C° 0.1 mm 4 mps 749 mmHg 60%
    16:00 +18°C° 0.1 mm 4 mps 749 mmHg 60%
    17:00 +18°C° 0.1 mm 4 mps 749 mmHg 60%
    18:00 +17°C° 0 mm 3 mps 748 mmHg 66%
    19:00 +15°C° 0 mm 2 mps 748 mmHg 72%
    20:00 +13°C° 0 mm 1 mps 748 mmHg 79%
    21:00 +13°C° 0 mm 1 mps 749 mmHg 81%
    22:00 +12°C° 0 mm 1 mps 749 mmHg 84%
    23:00 +10°C° 0 mm 2 mps 749 mmHg 86%
    Show more